Flight Track Log - Related Links

Times and Time Zones

All times are in EDT time to prevent confusion due to time zone crossing. See the N451N flight status page for this flight to view local times or setup timezone preferences in your user account.

Time Position Orientation Groundspeed Altitude Reporting Facility
EDT Latitude Longitude Course Direction KTS MPH feet Rate Location/Type
Sun 04:14:32 PM 35.8194 -80.9578 47° Northeast 274 315 5,600  Level Atlanta Center
Sun 04:15:32 PM 35.8683 -80.9972 327° Northwest 221 254 9,000 3,500 Climbing Atlanta Center
Sun 04:16:32 PM 35.9172 -81.0389 325° Northwest 212 244 12,600 3,850 Climbing Atlanta Center
Sun 04:17:00 PM 36.2215 -80.4158 47° Northeast  Level FlightAware Approximate
Sun 04:17:32 PM 35.9744 -81.0700 336° Northwest 217 250 16,700  Level Atlanta Center
Sun 04:18:32 PM 36.0381 -81.0344 24° Northeast 210 242 19,700 2,750 Climbing Atlanta Center
Sun 04:19:32 PM 36.1103 -80.9958 23° Northeast 261 300 22,200 2,000 Climbing Atlanta Center
Sun 04:20:32 PM 36.2006 -80.9408 26° Northeast 301 346 23,700 1,800 Climbing Atlanta Center
Sun 04:21:32 PM 36.2969 -80.8728 30° Northeast 362 417 25,800 2,300 Climbing Atlanta Center
Sun 04:22:32 PM 36.3933 -80.8069 29° Northeast 393 452 28,300 2,500 Climbing Atlanta Center
Sun 04:23:32 PM 36.4914 -80.7386 29° Northeast 403 464 30,800 2,350 Climbing Atlanta Center
Sun 04:24:32 PM 36.5897 -80.6697 29° Northeast 403 464 33,000 1,964 Climbing Atlanta Center
Sun 04:26:20 PM 36.7386 -80.5269 38° Northeast 370 426 36,300 1,669 Climbing Washington Center
Sun 04:27:21 PM 36.8058 -80.4119 54° Northeast 382 440 37,700 1,462 Climbing Washington Center
Sun 04:28:19 PM 36.8689 -80.2964 56° Northeast 394 453 39,200 1,261 Climbing Washington Center
Sun 04:29:20 PM 36.9250 -80.1958 55° Northeast 394 453 40,200 744 Climbing Washington Center
Sun 04:30:20 PM 36.9878 -80.0825 55° Northeast 394 453 40,700 397 Climbing Washington Center
Sun 04:31:21 PM 37.0506 -79.9639 56° Northeast 399 459 41,000 149 Climbing Washington Center
Sun 04:32:21 PM 37.1264 -79.8250 56° Northeast 424 488 41,000  Level Washington Center
Sun 04:33:19 PM 37.1956 -79.6958 56° Northeast 438 504 41,000  Level Washington Center
Sun 04:34:20 PM 37.2669 -79.5614 56° Northeast 445 512 41,000  Level Washington Center
Sun 04:35:21 PM 37.3314 -79.4394 56° Northeast 457 526 41,000  Level Washington Center
Sun 04:36:21 PM 37.4047 -79.3017 56° Northeast 457 526 41,000  Level Washington Center
Sun 04:37:19 PM 37.4817 -79.1747 53° Northeast 462 532 41,000  Level Washington Center
Sun 04:38:20 PM 37.5567 -79.0289 57° Northeast 462 532 41,000  Level Washington Center
Sun 04:39:21 PM 37.6272 -78.8958 56° Northeast 452 520 41,000  Level Washington Center
Sun 04:40:19 PM 37.6997 -78.7625 55° Northeast 452 520 41,000  Level Washington Center
Sun 04:41:20 PM 37.7611 -78.6442 57° Northeast 452 520 41,000  Level Washington Center
Sun 04:42:21 PM 37.8333 -78.5103 56° Northeast 452 520 41,000  Level Washington Center
Sun 04:43:21 PM 37.9033 -78.3736 57° Northeast 452 520 41,000  Level Washington Center
Sun 04:44:19 PM 37.9817 -78.2264 56° Northeast 452 520 41,000  Level Washington Center
Sun 04:45:19 PM 38.0428 -78.0992 59° Northeast 442 509 41,000  Level Washington Center
Sun 04:46:21 PM 38.1081 -77.9667 58° Northeast 437 503 41,000  Level Washington Center
Sun 04:47:19 PM 38.1733 -77.8317 58° Northeast 443 510 41,000  Level Washington Center
Sun 04:48:20 PM 38.2403 -77.6961 58° Northeast 443 510 41,000  Level Washington Center
Sun 04:49:21 PM 38.3050 -77.5631 58° Northeast 443 510 41,000  Level Washington Center
Sun 04:50:21 PM 38.3739 -77.4269 57° Northeast 449 517 41,000  Level Washington Center
Sun 04:51:20 PM 38.4406 -77.2936 57° Northeast 449 517 41,000  Level Washington Center
Sun 04:52:21 PM 38.5028 -77.1622 59° Northeast 449 517 41,000  Level Washington Center
Sun 04:53:21 PM 38.5650 -77.0333 58° Northeast 444 511 41,000  Level Washington Center
Sun 04:54:19 PM 38.6289 -76.9019 58° Northeast 438 504 41,000  Level Washington Center
Sun 04:55:20 PM 38.6908 -76.7725 58° Northeast 433 498 41,000  Level Washington Center
Sun 04:56:21 PM 38.7647 -76.6539 51° Northeast 428 493 41,000  Level Washington Center
Sun 04:57:19 PM 38.8408 -76.5403 49° Northeast 423 487 41,000  Level Washington Center
Sun 04:58:19 PM 38.9189 -76.4267 49° Northeast 423 487 41,000  Level Washington Center
Sun 04:59:20 PM 38.9967 -76.3128 49° Northeast 423 487 41,000  Level Washington Center
Sun 05:00:21 PM 39.0744 -76.1986 49° Northeast 423 487 41,000  Level Washington Center
Sun 05:01:21 PM 39.1458 -76.0919 49° Northeast 428 493 41,000  Level Washington Center
Sun 05:02:19 PM 39.2233 -75.9775 49° Northeast 433 498 41,000  Level Washington Center
Sun 05:03:19 PM 39.3008 -75.8597 50° Northeast 433 498 41,000  Level Washington Center
Sun 05:04:20 PM 39.3800 -75.7419 49° Northeast 428 493 41,000 -198 Level Washington Center
Sun 05:05:20 PM 39.4572 -75.6211 50° Northeast 428 493 40,600 -1,091 Descending Washington Center
Sun 05:06:21 PM 39.5364 -75.5028 49° Northeast 428 493 38,800 -2,011 Descending Washington Center
Sun 05:08:16 PM 39.7011 -75.2525 49° Northeast 430 495 34,700 -1,943 Descending New York Center
Sun 05:09:17 PM 39.7722 -75.1328 52° Northeast 442 509 33,100 -1,815 Descending New York Center
Sun 05:10:15 PM 39.8542 -75.0056 50° Northeast 454 522 31,100 -2,017 Descending New York Center
Sun 05:11:16 PM 39.9400 -74.8753 49° Northeast 459 528 29,100 -1,967 Descending New York Center
Sun 05:12:17 PM 40.0300 -74.7422 49° Northeast 472 543 27,100 -1,059 Descending New York Center
Sun 05:13:15 PM 40.1097 -74.6003 54° Northeast 478 550 27,000 -51 Descending New York Center
Sun 05:14:15 PM 40.1811 -74.4575 57° Northeast 471 542 27,000  Level New York Center
Sun 05:15:16 PM 40.2497 -74.3225 56° Northeast 457 526 27,000 -537 Level New York Center
Sun 05:16:18 PM 40.3247 -74.1875 54° Northeast 452 520 25,900 -1,311 Descending New York Center
Sun 05:17:15 PM 40.3950 -74.0603 54° Northeast 446 513 24,400 -1,510 Descending New York Center
Sun 05:18:53 PM 40.5119 -73.8431 55° Northeast 432 497 22,000 -1,291 Descending Boston Center
Sun 05:19:53 PM 40.5781 -73.7161 56° Northeast 426 490 21,000 -950 Descending Boston Center
Sun 05:20:53 PM 40.6378 -73.5969 57° Northeast 426 490 20,100 -1,000 Descending Boston Center
Sun 05:21:53 PM 40.7119 -73.4614 54° Northeast 426 490 19,000 -550 Descending Boston Center
Sun 05:22:53 PM 40.7756 -73.3389 56° Northeast 421 484 19,000  Level Boston Center
Sun 05:23:53 PM 40.8553 -73.2358 44° Northeast 407 468 19,000  Level Boston Center
Sun 05:24:53 PM 40.9436 -73.1325 41° Northeast 402 463 19,000  Level Boston Center
Sun 05:25:53 PM 41.0169 -73.0453 42° Northeast 402 463 19,000 -793 Level Boston Center
Sun 05:26:54 PM 41.0989 -72.9469 42° Northeast 397 457 17,400 -1,850 Descending Boston Center
Sun 05:27:53 PM 41.1764 -72.8564 41° Northeast 386 444 15,300 -2,250 Descending Boston Center
Sun 05:28:22 PM 41.2222 -72.8072 39° Northeast 365 420 14,100 -2,273 Descending Boston Center
Sun 05:28:59 PM 41.2642 -72.7522 45° Northeast 345 397 12,800 -1,912 Descending Boston Center
Sun 05:29:53 PM 41.3289 -72.7275 16° North 294 338 11,200 -1,526 Descending Boston Center
Sun 05:30:53 PM 41.4119 -72.7778 336° Northwest 286 329 9,900 -1,250 Descending Boston Center
Sun 05:31:53 PM 41.4681 -72.8225 329° Northwest 272 313 8,700 -1,610 Descending Boston Center
Sun 05:32:56 PM 41.5536 -72.8422 350° North 291 335 6,600 -1,700 Descending Boston Center
Sun 05:33:53 PM 41.6183 -72.8094 21° North 269 310 5,300 -821 Descending Boston Center
Sun 05:34:53 PM 41.6997 -72.7739 18° North 277 319 5,000 -150 Descending Boston Center
Sun 05:35:53 PM 41.7603 -72.7183 34° Northeast 282 325 5,000  Level Boston Center
Sun 05:36:53 PM 41.8292 -72.6519 36° Northeast 282 325 5,000  Level Boston Center
Sun 05:37:53 PM 41.8708 -72.5989 43° Northeast 267 307 5,000 -550 Level Boston Center
Sun 05:38:53 PM 41.9272 -72.5267 44° Northeast 236 272 3,900 -1,139 Descending Boston Center
Sun 05:39:12 PM 41.9397 -72.5125 40° Northeast 234 269 3,500 -1,000 Descending Boston Center
Sun 05:39:53 PM 41.9711 -72.4736 43° Northeast 231 266 2,900 -984 Descending Boston Center
Sun 05:40:13 PM 41.9878 -72.4514 45° Northeast 236 272 2,500 -324 Descending Boston Center
Sun 05:41:07 PM 42.0356 -72.4625 350° North 221 254 2,500  Level Boston Center
Sun 05:41:53 PM 42.0544 -72.5100 298° West 167 192 2,500  Level Boston Center
Sun 05:42:20 PM 42.0481 -72.5492 258° West 207 238 2,500 -100 Level Boston Center
Sun 05:42:53 PM 42.0294 -72.5742 225° Southwest 145 167 2,400 -393 Descending Boston Center
Sun 05:43:21 PM 42.0106 -72.5939 218° Southwest 181 208 2,100 -940 Descending Boston Center
Sun 05:44:16 PM 41.9814 -72.6272 220° Southwest 151 174 1,100 -1,091 Descending Boston Center

Login

Don't have an account? Register now (free) for customized features, flight alerts, and more!